KJ7BLE-13 Weather Reports


time (UTC)temp
C
wind
direction
speed
KPH
gust
KPH
rain 1hr
cm
rain 24hr
cm
rain mn
cm
humidity
%
barometer
mb
20260506114518 9 266 3.2 4.8 0.00 0.00 0.00 63 1020.9
20260506113517 9 266 3.2 4.8 0.00 0.00 0.00 63 1020.8
20260506112516 9 266 3.2 4.8 0.00 0.00 0.00 63 1020.8
20260506111539 9 266 3.2 4.8 0.00 0.00 0.00 63 1020.7
20260506110521 8 266 3.2 6.4 0.00 0.00 0.00 63 1020.7
20260506105517 8 266 1.6 3.2 0.00 0.00 0.00 62 1020.6
20260506104518 9 266 1.6 4.8 0.00 0.00 0.00 62 1020.5
20260506103516 9 266 1.6 3.2 0.00 0.00 0.00 61 1020.6
20260506102537 9 266 3.2 4.8 0.00 0.00 0.00 61 1020.5
20260506101518 8 266 1.6 4.8 0.00 0.00 0.00 61 1020.5
20260506100517 8 268 3.2 4.8 0.00 0.00 0.00 65 1020.5
20260506095519 7 268 1.6 3.2 0.00 0.00 0.00 67 1020.5
20260506094516 6 268 0.0 1.6 0.00 0.00 0.00 66 1020.4
20260506093516 6 0.0 0.0 0.00 0.00 0.00 63 1020.4
20260506092516 7 268 0.0 1.6 0.00 0.00 0.00 59 1020.3
20260506091518 7 0.0 0.0 0.00 0.00 0.00 54 1020.3
20260506090518 7 268 1.6 3.2 0.00 0.00 0.00 51 1020.3
20260506085516 7 268 1.6 3.2 0.00 0.00 0.00 48 1020.3
20260506084518 8 268 0.0 1.6 0.00 0.00 0.00 49 1020.4
20260506083516 8 0.0 0.0 0.00 0.00 0.00 49 1020.3
20260506082518 8 268 0.0 1.6 0.00 0.00 0.00 51 1020.3
20260506081519 8 268 0.0 1.6 0.00 0.00 0.00 53 1020.3
20260506080538 8 268 0.0 3.2 0.00 0.00 0.00 53 1020.2
20260506072519 9 268 1.6 3.2 0.00 0.00 0.00 56 1019.7
20260506071517 9 268 0.0 1.6 0.00 0.00 0.00 52 1019.7
20260506070517 10 268 0.0 1.6 0.00 0.00 0.00 53 1019.6
20260506061536 11 268 1.6 3.2 0.00 0.00 0.00 45 1019.0
20260506060516 11 268 0.0 1.6 0.00 0.00 0.00 44 1018.9
20260506050516 13 0.0 0.0 0.00 0.00 0.00 41 1018.3
20260506044517 15 0.0 0.0 0.00 0.00 0.00 42 1018.3
20260506043539 15 0.0 0.0 0.00 0.00 0.00 44 1018.2
20260506042536 16 0.0 0.0 0.00 0.00 0.00 43 1018.2
20260506041520 16 268 1.6 3.2 0.00 0.00 0.00 41 1018.1
20260506040517 16 268 1.6 3.2 0.00 0.00 0.00 40 1018.0
20260506035520 17 0.0 0.0 0.00 0.00 0.00 40 1017.9
20260506034517 16 0.0 0.0 0.00 0.00 0.00 38 1110.6
20260506033518 12 344 0.0 1.6 0.00 0.00 0.00 37 1127.3
20260506032516 16 312 3.2 6.4 0.00 0.00 0.00 38 1103.4
20260506031517 19 290 3.2 8.0 0.00 0.00 0.00 37 1017.5
20260506030517 17 342 3.2 11.3 0.00 0.00 0.00 37 1097.1
20260506025538 20 263 1.6 4.8 0.00 0.00 0.00 36 1017.3
20260506024518 20 251 0.0 1.6 0.00 0.00 0.00 35 1017.3
20260506023519 20 282 3.2 16.1 0.00 0.00 0.00 35 1017.0
20260506022516 20 318 3.2 8.0 0.00 0.00 0.00 34 1017.0
20260506021516 21 334 3.2 9.7 0.00 0.00 0.00 33 1016.9
20260506020518 21 283 3.2 8.0 0.00 0.00 0.00 34 1016.9
20260506015518 21 289 4.8 16.1 0.00 0.00 0.00 34 1016.9
20260506014539 21 317 6.4 12.9 0.00 0.00 0.00 34 1016.8
20260506013516 21 299 6.4 20.9 0.00 0.00 0.00 34 1016.7
20260506012536 22 308 8.0 17.7 0.00 0.00 0.00 33 1016.7
20260506011516 22 336 4.8 12.9 0.00 0.00 0.00 32 1016.5
20260506010518 22 321 6.4 17.7 0.00 0.00 0.00 31 1016.3
20260506005518 22 343 4.8 14.5 0.00 0.00 0.00 30 1016.4
20260506004516 23 341 6.4 16.1 0.00 0.00 0.00 29 1016.3
20260506003517 23 322 1.6 6.4 0.00 0.00 0.00 29 1016.1
20260506002517 22 335 3.2 9.7 0.00 0.00 0.00 28 1016.1
20260506001516 22 334 6.4 12.9 0.00 0.00 0.00 28 1016.1
20260506000517 23 351 3.2 4.8 0.00 0.00 0.00 28 1016.0
20260505235517 23 62 1.6 4.8 0.00 0.00 0.00 27 1016.0
20260505234517 24 347 6.4 12.9 0.00 0.00 0.00 26 1016.1
20260505233517 24 326 3.2 6.4 0.00 0.00 0.00 26 1016.1
20260505232539 24 338 3.2 11.3 0.00 0.00 0.00 26 1016.1
20260505231516 24 8 1.6 6.4 0.00 0.00 0.00 26 1016.1
20260505230517 24 334 8.0 20.9 0.00 0.00 0.00 26 1016.2
20260505225518 24 347 4.8 12.9 0.00 0.00 0.00 26 1016.1
20260505224519 24 340 4.8 16.1 0.00 0.00 0.00 26 1016.2
20260505223637 24 346 6.4 14.5 0.00 0.00 0.00 26 1016.3
20260505222518 24 339 6.4 19.3 0.00 0.00 0.00 25 1016.3
20260505221520 23 17 1.6 8.0 0.00 0.00 0.00 26 1016.4
20260505220516 23 81 3.2 12.9 0.00 0.00 0.00 26 1016.4
20260505215518 23 325 6.4 16.1 0.00 0.00 0.00 26 1016.6
20260505214559 23 337 3.2 9.7 0.00 0.00 0.00 27 1016.5
20260505213517 23 340 3.2 9.7 0.00 0.00 0.00 27 1016.6
20260505212518 23 317 6.4 17.7 0.00 0.00 0.00 27 1016.7
20260505211517 23 339 1.6 6.4 0.00 0.00 0.00 27 1016.7
20260505210516 23 352 3.2 8.0 0.00 0.00 0.00 27 1016.7
20260505205518 23 24 3.2 6.4 0.00 0.00 0.00 29 1016.7
20260505204517 23 52 1.6 4.8 0.00 0.00 0.00 29 1016.7
20260505203516 22 314 6.4 16.1 0.00 0.00 0.00 29 1016.7
20260505202516 22 319 6.4 19.3 0.00 0.00 0.00 30 1016.8
20260505201516 22 333 3.2 12.9 0.00 0.00 0.00 30 1016.8
20260505200517 22 308 6.4 12.9 0.00 0.00 0.00 30 1017.0
20260505195538 22 333 3.2 11.3 0.00 0.00 0.00 32 1017.0
20260505194538 21 92 3.2 9.7 0.00 0.00 0.00 32 1017.1
20260505193516 21 9 3.2 6.4 0.00 0.00 0.00 32 1017.1
20260505192518 21 4 3.2 14.5 0.00 0.00 0.00 32 1017.2
20260505191556 21 301 4.8 9.7 0.00 0.00 0.00 33 1017.2
20260505190537 21 329 3.2 9.7 0.00 0.00 0.00 33 1017.2
20260505185516 20 339 4.8 9.7 0.00 0.00 0.00 33 1017.3
20260505184518 20 61 3.2 8.0 0.00 0.00 0.00 33 1017.3
20260505183518 20 336 4.8 11.3 0.00 0.00 0.00 33 1017.4
20260505182517 20 322 4.8 9.7 0.00 0.00 0.00 34 1017.4
20260505181518 19 106 1.6 8.0 0.00 0.00 0.00 34 1017.4
20260505180518 18 54 3.2 4.8 0.00 0.00 0.00 36 1017.4
20260505175516 18 135 3.2 6.4 0.00 0.00 0.00 36 1017.4
20260505174518 18 307 3.2 8.0 0.00 0.00 0.00 36 1017.4
20260505173538 17 215 1.6 4.8 0.00 0.00 0.00 37 1017.5
20260505172516 17 95 1.6 8.0 0.00 0.00 0.00 38 1017.5
20260505171536 17 356 1.6 6.4 0.00 0.00 0.00 38 1017.4
20260505170518 17 164 1.6 6.4 0.00 0.00 0.00 39 1017.5
20260505165516 16 164 0.0 3.2 0.00 0.00 0.00 40 1017.5
20260505164518 16 154 1.6 8.0 0.00 0.00 0.00 40 1017.7
20260505163516 16 139 0.0 3.2 0.00 0.00 0.00 42 1017.6
20260505162516 15 139 0.0 3.2 0.00 0.00 0.00 42 1017.5
20260505161517 13 139 1.6 4.8 0.00 0.00 0.00 46 1017.6
20260505160516 13 141 3.2 8.0 0.00 0.00 0.00 45 1017.6
20260505152517 12 0.0 0.0 0.00 0.00 0.00 47 1017.6
20260505151538 11 0.0 0.0 0.00 0.00 0.00 48 1017.5
20260505150517 11 0.0 0.0 0.00 0.00 0.00 52 1017.4
20260505140516 6 0.0 0.0 0.00 0.00 0.00 63 1016.7
20260505124517 4 0.0 0.0 0.00 0.00 0.00 66 1016.1
20260505123518 3 0.0 0.0 0.00 0.00 0.00 68 1016.1
20260505122518 3 0.0 0.0 0.00 0.00 0.00 67 1016.0
20260505121517 3 0.0 0.0 0.00 0.00 0.00 68 1016.0
20260505120537 3 0.0 0.0 0.00 0.00 0.00 66 1016.0
20260505115519 3 0.0 0.0 0.00 0.00 0.00 66 1015.9